EW1917 Weather Reports


time (UTC)temp
F
wind
direction
speed
knots
gust
knots
rain 1hr
in
rain 24hr
in
rain mn
in
humidity
%
barometer
mb
20260506163253 64 242 5.2 13.0 0.00 2.07 0.00 75 1008.4
20260506162753 64 297 4.3 6.1 0.00 2.07 0.00 77 1008.5
20260506162250 64 190 3.5 7.0 0.00 2.07 0.00 78 1008.5
20260506161750 64 144 1.7 12.2 0.00 2.11 0.00 80 1008.5
20260506161256 63 272 0.9 8.7 0.00 2.18 0.00 82 1008.4
20260506160750 62 246 3.5 8.7 0.00 2.22 0.00 82 1008.6
20260506160253 62 247 2.6 7.8 0.00 2.23 0.00 83 1008.4
20260506155750 62 280 3.5 6.1 0.00 2.23 0.00 86 1008.6
20260506155250 62 252 2.6 7.8 0.00 2.23 0.00 85 1008.5
20260506154753 62 169 0.9 7.0 0.00 2.23 0.00 85 1008.4
20260506154253 62 92 1.7 9.6 0.00 2.23 0.00 85 1008.3
20260506153753 62 219 0.9 7.8 0.00 2.23 0.00 86 1008.3
20260506153250 62 271 2.6 12.2 0.00 2.23 0.00 88 1008.3
20260506152750 61 255 2.6 4.3 0.00 2.23 0.00 88 1008.1
20260506152259 61 190 3.5 5.2 0.00 2.23 0.00 88 1008.1
20260506151750 61 157 2.6 4.3 0.00 2.23 0.00 88 1008.1
20260506151254 61 171 0.0 8.7 0.00 2.23 0.00 88 1008.4
20260506150756 61 159 1.7 11.3 0.00 2.23 0.00 87 1008.4
20260506150250 61 270 7.0 12.2 0.00 2.23 0.00 87 1008.5
20260506145753 62 244 8.7 8.7 0.00 2.23 0.00 89 1008.3
20260506145250 62 231 0.9 8.7 0.00 2.23 0.00 88 1008.4
20260506144753 61 215 0.9 6.1 0.00 2.23 0.00 89 1008.2
20260506144250 61 180 0.9 6.1 0.00 2.23 0.00 88 1008.4
20260506143753 61 174 0.9 8.7 0.00 2.23 0.00 87 1008.2
20260506143250 62 184 1.7 5.2 0.00 2.23 0.00 89 1008.3
20260506142750 61 260 2.6 7.8 0.00 2.23 0.00 88 1008.4
20260506142250 61 192 0.0 7.8 0.00 2.23 0.00 89 1008.5
20260506141750 61 211 0.9 4.3 0.01 2.25 0.00 90 1008.5
20260506141250 60 165 6.1 9.6 0.02 2.25 0.00 90 1008.5
20260506140756 59 118 1.7 9.6 0.06 2.25 0.00 89 1008.7
20260506140250 59 213 0.0 13.0 0.14 2.25 0.00 89 1008.7
20260506135753 59 177 5.2 9.6 0.16 2.25 0.00 89 1008.7
20260506135256 58 188 7.8 7.8 0.18 2.25 0.00 89 1008.8
20260506134751 58 161 3.5 7.0 0.18 2.25 0.00 89 1008.8
20260506134259 58 167 3.5 8.7 0.18 2.25 0.00 88 1008.8
20260506133750 59 163 6.1 12.2 0.18 2.25 0.00 88 1008.8
20260506133253 59 233 1.7 4.3 0.18 2.25 0.00 90 1008.9
20260506132750 59 224 2.6 6.1 0.18 2.25 0.00 89 1008.9
20260506132250 59 132 1.7 7.8 0.18 2.25 0.00 89 1008.7
20260506131756 59 215 0.0 7.0 0.17 2.24 0.00 88 1008.7
20260506131250 59 246 4.3 13.9 0.16 2.23 0.00 87 1008.7
20260506130753 60 169 4.3 7.8 0.12 2.19 0.00 85 1008.8
20260506130250 61 161 0.9 15.6 0.04 2.11 0.00 85 1008.8
20260506125753 63 270 11.3 13.9 0.02 2.10 0.00 84 1008.7
20260506125250 64 265 9.6 13.0 0.00 2.08 0.00 83 1008.2
20260506124817 64 322 2.6 12.2 0.00 2.10 0.00 82 1008.0
20260506124250 64 188 4.3 12.2 0.00 2.11 0.00 82 1008.0
20260506123750 64 119 1.7 10.4 0.00 2.11 0.00 82 1008.2
20260506123256 64 187 3.5 7.8 0.00 2.11 0.00 81 1008.1
20260506122750 65 173 1.7 14.8 0.00 2.12 0.00 81 1008.0
20260506122250 64 162 9.6 13.9 0.00 2.12 0.00 81 1007.8
20260506121750 64 181 7.0 15.6 0.00 2.12 0.00 81 1008.0
20260506121253 64 181 4.3 11.3 0.00 2.12 0.00 83 1008.2
20260506120753 64 238 2.6 17.4 0.00 2.12 0.00 82 1007.8
20260506120253 64 197 4.3 13.0 0.00 2.12 0.00 82 1008.1
20260506115753 64 240 1.7 17.4 0.00 2.12 0.00 81 1008.0
20260506115253 64 183 0.9 20.0 0.00 2.13 0.00 83 1008.1
20260506114753 64 183 9.6 12.2 0.00 2.13 0.00 83 1008.1
20260506114250 64 173 1.7 13.9 0.00 2.13 0.00 84 1008.3
20260506113756 63 276 3.5 12.2 0.00 2.14 0.00 84 1008.2
20260506113259 63 171 5.2 11.3 0.00 2.14 0.00 84 1008.1
20260506112756 62 236 3.5 13.0 0.00 2.15 0.00 85 1008.1
20260506112253 62 227 1.7 18.2 0.00 2.17 0.00 85 1008.2
20260506111750 62 192 6.1 13.0 0.00 2.19 0.00 84 1008.1
20260506111250 62 184 6.1 13.0 0.00 2.22 0.00 84 1008.3
20260506110750 62 148 4.3 13.0 0.00 2.30 0.00 83 1008.0
20260506110257 63 127 4.3 13.9 0.00 2.38 0.00 83 1008.3
20260506105751 63 123 2.6 16.5 0.00 2.38 0.00 83 1008.4
20260506105256 63 145 10.4 10.4 0.00 2.38 0.00 83 1008.4
20260506104750 64 251 2.6 17.4 0.00 2.38 0.00 83 1008.5
20260506104250 64 185 6.1 9.6 0.00 2.38 0.00 84 1008.5
20260506103750 63 159 4.3 12.2 0.00 2.38 0.00 85 1008.5
20260506103250 63 86 4.3 11.3 0.00 2.38 0.00 84 1008.7
20260506102751 62 279 5.2 18.2 0.00 2.38 0.00 84 1008.8
20260506102253 62 158 4.3 14.8 0.00 2.38 0.00 84 1008.7
20260506101750 62 273 10.4 14.8 0.00 2.38 0.00 84 1008.5
20260506101251 62 236 2.6 20.0 0.00 2.38 0.00 84 1008.7
20260506100753 62 150 7.8 14.8 0.00 2.39 0.00 85 1008.6
20260506100253 62 169 4.3 16.5 0.00 2.40 0.00 86 1008.7
20260506095750 61 129 3.5 13.9 0.00 2.40 0.00 87 1008.8
20260506095254 60 217 8.7 17.4 0.00 2.41 0.00 87 1008.8
20260506094750 60 246 8.7 10.4 0.00 2.44 0.00 88 1008.8
20260506094250 60 103 5.2 17.4 0.00 2.45 0.00 89 1008.8
20260506093759 59 157 0.9 14.8 0.00 2.56 0.00 89 1008.8
20260506093253 59 157 8.7 13.0 0.00 2.59 0.00 90 1008.8
20260506092759 59 203 11.3 19.1 0.00 2.59 0.00 91 1009.0
20260506092250 59 168 0.9 13.0 0.00 2.59 0.00 91 1008.8
20260506091751 59 207 6.1 16.5 0.00 2.59 0.00 91 1008.5
20260506091256 59 179 1.7 11.3 0.00 2.59 0.00 92 1008.7
20260506090753 59 150 9.6 18.2 0.00 2.59 0.00 93 1008.7
20260506090250 59 222 7.0 15.6 0.00 2.59 0.00 93 1008.7
20260506085754 59 193 7.8 11.3 0.00 2.59 0.00 94 1008.8
20260506085253 59 201 6.1 7.8 0.00 2.59 0.00 94 1008.8
20260506084755 59 170 0.0 7.8 0.00 2.59 0.00 94 1008.8
20260506084256 59 172 1.7 13.0 0.00 2.59 0.00 94 1008.8
20260506083750 59 250 4.3 12.2 0.00 2.60 0.00 94 1008.9
20260506083250 59 163 0.9 8.7 0.00 2.62 0.00 93 1009.0
20260506082750 59 173 5.2 7.8 0.00 2.64 0.00 93 1008.9
20260506082256 59 84 2.6 14.8 0.00 2.66 0.00 93 1008.8
20260506081753 59 298 3.5 12.2 0.00 2.66 0.00 93 1008.7
20260506081253 59 241 4.3 18.2 0.00 2.66 0.00 93 1008.5
20260506080756 59 205 5.2 11.3 0.00 2.66 0.00 93 1008.6
20260506080250 59 65 1.7 7.0 0.00 2.66 0.00 94 1008.8
20260506073250 58 164 5.2 15.6 0.00 2.66 0.00 94 1008.5
20260506072750 58 161 4.3 8.7 0.00 2.66 0.00 94 1008.6
20260506072259 58 198 1.7 14.8 0.00 2.66 0.00 94 1008.6
20260506071756 58 229 2.6 12.2 0.00 2.67 0.00 94 1008.6
20260506071253 58 170 8.7 10.4 0.00 2.67 0.00 94 1008.5
20260506070753 58 124 2.6 13.0 0.02 2.68 0.00 94 1008.5
20260506070256 57 211 1.7 17.4 0.03 2.68 0.00 94 1008.5
20260506062250 57 109 12.2 12.2 0.06 2.87 0.00 94 1008.5
20260506061753 57 136 1.7 3.5 0.05 2.86 0.00 94 1008.6
20260506061250 57 234 1.7 10.4 0.05 2.86 0.00 94 1008.6
20260506060750 57 312 7.0 13.9 0.03 2.85 0.00 94 1008.6
20260506060250 57 111 7.0 11.3 0.03 2.85 0.00 94 1008.6
20260506051256 56 50 1.7 5.2 0.00 2.97 0.00 96 1008.6
20260506050750 56 232 1.7 7.8 0.00 3.03 0.00 96 1008.6
20260506050253 56 178 3.5 4.3 0.00 3.12 0.00 96 1008.7
20260506044753 55 296 0.9 7.8 0.01 3.25 0.00 96 1008.8
20260506044253 55 138 1.7 2.6 0.01 3.26 0.00 96 1009.0
20260506043750 55 40 0.0 1.7 0.03 3.28 0.00 96 1009.1
20260506043250 55 40 0.0 0.9 0.04 3.29 0.00 96 1009.1
20260506042753 55 40 0.9 1.7 0.07 3.29 0.00 96 1009.3
20260506042250 55 40 0.9 1.7 0.10 3.29 0.00 96 1009.4
20260506041753 55 63 0.0 3.5 0.16 3.29 0.00 96 1009.5
20260506041250 55 74 0.9 2.6 0.20 3.29 0.00 96 1009.6
20260506040759 55 74 0.0 2.6 0.28 3.29 0.00 96 1009.6
20260506040318 55 320 0.9 2.6 0.32 3.29 0.00 96 1009.6
20260506035750 55 313 1.7 6.1 0.40 3.29 0.00 96 1009.7
20260506035250 54 103 0.0 1.7 0.44 3.28 0.00 96 1009.6
20260506034750 54 103 0.9 3.5 0.47 3.28 0.00 96 1009.5
20260506034253 55 138 2.6 2.6 0.51 3.28 0.00 95 1009.6
20260506033750 55 117 0.9 1.7 0.52 3.26 0.00 96 1009.6
20260506033253 55 94 0.0 3.5 0.53 3.25 0.00 96 1009.7
20260506032750 55 99 1.7 5.2 0.53 3.23 0.00 96 1009.8
20260506032250 55 107 1.7 4.3 0.52 3.21 0.00 96 1009.9
20260506031750 55 146 0.9 2.6 0.49 3.14 0.00 96 1010.3
20260506031251 55 5 0.9 1.7 0.50 3.10 0.00 96 1010.0
20260506030750 55 5 0.0 0.9 0.51 3.02 0.00 96 1010.0
20260506030250 55 5 0.0 0.9 0.54 2.98 0.00 96 1009.9
20260506025756 55 5 0.0 1.7 0.47 2.90 0.00 96 1009.9
20260506025250 55 298 0.9 2.6 0.42 2.85 0.00 95 1010.0
20260506024750 55 286 0.9 1.7 0.40 2.83 0.00 95 1010.0
20260506024253 55 240 0.9 1.7 0.36 2.78 0.00 95 1010.1
20260506023750 55 145 0.9 3.5 0.33 2.77 0.00 95 1009.9
20260506023253 55 167 2.6 3.5 0.32 2.75 0.00 95 1009.9
20260506022750 55 58 0.9 5.2 0.30 2.74 0.00 95 1009.8
20260506022250 55 82 4.3 5.2 0.29 2.71 0.00 95 1009.9
20260506021753 55 123 0.0 2.6 0.25 2.68 0.00 95 1010.1
20260506021300 55 183 0.9 2.6 0.22 2.63 0.00 95 1010.1
20260506020800 55 181 0.9 2.6 0.13 2.55 0.00 95 1010.0
20260506020251 56 271 0.9 2.6 0.07 2.48 0.00 95 1009.8
20260506015756 55 265 0.9 2.6 0.07 2.48 0.00 95 1009.7
20260506015253 55 32 0.0 0.9 0.09 2.47 0.00 95 1009.6
20260506014749 55 32 0.0 0.9 0.12 2.47 0.00 95 1009.6
20260506014250 56 32 0.0 1.7 0.20 2.46 0.00 95 1009.6
20260506013752 56 32 1.7 2.6 0.32 2.46 0.00 94 1009.8
20260506013250 56 355 0.9 2.6 0.31 2.45 0.00 94 1009.9
20260506012753 56 128 0.9 0.9 0.30 2.44 0.00 95 1010.1
20260506012250 56 128 0.0 3.5 0.29 2.44 0.00 95 1010.0
20260506011750 56 128 1.7 5.2 0.29 2.43 0.00 94 1010.1
20260506011250 56 144 2.6 2.6 0.29 2.42 0.00 94 1010.3
20260506010751 57 86 0.0 3.5 0.28 2.41 0.00 94 1010.3
20260506010252 57 142 1.7 3.5 0.27 2.40 0.00 94 1010.6
20260506005753 57 27 1.7 1.7 0.26 2.40 0.00 94 1010.6
20260506005253 57 28 0.9 5.2 0.24 2.37 0.00 94 1010.8
20260506004750 58 267 3.5 8.7 0.21 2.34 0.00 94 1010.7
20260506004250 58 153 1.7 9.6 0.23 2.25 0.00 94 1010.6
20260506003756 58 5 1.7 7.0 0.15 2.14 0.00 95 1010.5
20260506003256 58 257 1.7 9.6 0.18 2.14 0.00 95 1010.4
20260506002750 58 163 1.7 10.4 0.19 2.14 0.00 95 1010.3
20260506002250 58 98 2.6 12.2 0.19 2.14 0.00 95 1010.4
20260506001749 58 150 0.0 7.0 0.18 2.13 0.00 95 1010.3
20260506001259 58 206 1.7 6.1 0.19 2.13 0.00 95 1010.5
20260506000753 58 165 0.0 5.2 0.19 2.13 0.00 95 1010.5
20260506000254 57 133 0.9 5.2 0.19 2.13 0.00 94 1010.5
20260505235756 57 163 0.0 0.9 0.19 2.13 0.00 94 1010.6
20260505235253 57 121 0.0 2.6 0.19 2.13 0.00 94 1010.4
20260505234750 58 103 0.9 6.1 0.20 2.13 0.00 94 1010.5
20260505234256 58 105 5.2 5.2 0.09 2.02 0.00 94 1010.8
20260505233756 58 42 0.9 1.7 0.05 1.98 0.00 94 1010.9
20260505233249 58 281 0.0 1.7 0.02 1.95 0.00 94 1011.1
20260505232756 58 234 0.0 1.7 0.01 1.94 0.00 94 1011.1
20260505232250 58 97 1.7 7.0 0.01 1.94 0.00 94 1010.9
20260505231750 58 252 0.0 2.6 0.01 1.94 0.00 94 1011.0
20260505231250 58 287 0.0 1.7 0.00 1.93 0.00 94 1011.2
20260505230750 58 59 0.9 1.7 0.00 1.93 0.00 94 1011.3
20260505230250 58 54 0.0 2.6 0.00 1.93 0.00 94 1011.3
20260505225750 58 256 0.0 2.6 0.00 1.93 0.00 93 1011.3
20260505225251 58 152 1.7 2.6 0.00 1.93 0.00 93 1011.4
20260505224750 58 148 0.0 2.6 0.00 1.92 0.00 93 1011.3
20260505224258 59 200 0.0 4.3 0.00 1.92 0.00 93 1011.3
20260505223750 59 136 1.7 7.8 0.00 1.92 0.00 93 1011.3
20260505223250 59 182 7.8 9.6 0.00 1.92 0.00 93 1011.3
20260505222753 59 145 4.3 6.1 0.00 1.92 0.00 94 1011.3
20260505222255 59 142 2.6 6.1 0.00 1.92 0.00 94 1011.3
20260505221754 59 148 3.5 6.1 0.00 1.92 0.00 94 1011.3
20260505221250 59 144 3.5 2.6 0.00 1.92 0.00 93 1011.3
20260505220749 59 174 0.9 9.6 0.00 1.92 0.00 93 1011.3
20260505220250 59 194 4.3 16.5 0.00 1.92 0.00 93 1011.2
20260505215752 59 181 1.7 9.6 0.00 1.92 0.00 93 1011.3
20260505215250 59 164 4.3 12.2 0.00 1.92 0.00 93 1011.3
20260505214755 59 133 4.3 12.2 0.00 1.92 0.00 93 1011.5
20260505214250 59 139 3.5 10.4 0.00 1.92 0.00 94 1011.5
20260505213750 59 224 0.0 9.6 0.00 1.92 0.00 94 1011.8
20260505213253 59 170 7.0 13.0 0.00 1.92 0.00 94 1011.8
20260505212750 59 152 0.9 5.2 0.00 1.92 0.00 94 1011.9
20260505212252 59 171 5.2 10.4 0.00 1.92 0.00 94 1011.9
20260505211750 59 205 0.0 5.2 0.00 1.92 0.00 94 1011.9
20260505211256 59 131 0.9 7.0 0.00 1.92 0.00 94 1011.9
20260505210749 59 114 3.5 6.1 0.03 1.92 0.00 94 1011.9
20260505210253 59 190 3.5 5.2 0.10 1.92 0.00 94 1011.9
20260505205756 59 209 1.7 8.7 0.17 1.92 0.00 94 1011.8
20260505205252 59 182 1.7 6.1 0.22 1.92 0.00 94 1011.9
20260505204750 59 177 4.3 8.7 0.25 1.92 0.00 94 1011.9
20260505204249 59 112 3.5 9.6 0.28 1.92 0.00 94 1011.8
20260505203750 59 190 5.2 7.8 0.28 1.92 0.00 94 1011.8
20260505203250 59 215 7.0 11.3 0.28 1.92 0.00 94 1011.7
20260505202749 59 155 7.8 11.3 0.28 1.92 0.00 94 1011.6
20260505202251 59 146 3.5 11.3 0.28 1.92 0.00 95 1011.4
20260505201753 59 154 1.7 10.4 0.28 1.92 0.00 94 1011.5
20260505201250 60 107 2.6 5.2 0.28 1.92 0.00 95 1011.5
20260505200751 60 296 0.0 1.7 0.25 1.89 0.00 95 1011.6
20260505200249 60 296 0.9 2.6 0.18 1.82 0.00 95 1011.7
20260505195753 60 264 0.0 3.5 0.11 1.75 0.00 95 1011.7
20260505195254 60 103 0.0 5.2 0.07 1.70 0.00 95 1011.5
20260505194750 60 13 2.6 2.6 0.03 1.66 0.00 95 1011.6
20260505194250 60 301 0.9 10.4 0.00 1.64 0.00 95 1011.4
20260505193753 60 83 4.3 7.0 0.00 1.64 0.00 95 1011.4
20260505193250 60 140 0.0 1.7 0.00 1.64 0.00 95 1011.4
20260505192751 60 192 1.7 2.6 0.00 1.64 0.00 95 1011.4
20260505192254 60 178 0.0 3.5 0.01 1.64 0.00 95 1011.3
20260505191749 60 121 1.7 3.5 0.01 1.64 0.00 95 1011.3
20260505191252 60 136 2.6 5.2 0.02 1.64 0.00 95 1011.4
20260505190754 60 170 1.7 5.2 0.02 1.64 0.00 95 1011.4
20260505190253 60 126 0.0 5.2 0.02 1.64 0.00 95 1011.3
20260505185753 60 163 4.3 4.3 0.02 1.64 0.00 95 1011.3
20260505185256 60 194 0.9 5.2 0.01 1.63 0.00 95 1011.3
20260505184749 60 188 0.9 7.8 0.01 1.63 0.00 95 1011.3
20260505184250 60 194 0.9 6.1 0.01 1.63 0.00 95 1011.2
20260505183752 60 148 0.9 6.1 0.01 1.63 0.00 95 1011.1
20260505183249 60 167 2.6 7.8 0.03 1.63 0.00 95 1011.0
20260505182750 60 153 1.7 3.5 0.05 1.63 0.00 95 1011.1
20260505182252 60 157 0.9 3.5 0.06 1.62 0.00 95 1011.1
20260505181756 60 184 1.7 3.5 0.06 1.62 0.00 95 1011.0
20260505181255 60 140 2.6 3.5 0.06 1.62 0.00 95 1011.0
20260505180750 60 144 0.0 1.7 0.06 1.62 0.00 95 1011.0
20260505180249 60 144 0.9 1.7 0.06 1.62 0.00 94 1011.0
20260505175749 60 190 0.9 4.3 0.06 1.62 0.00 94 1011.0
20260505175249 60 153 1.7 3.5 0.06 1.62 0.00 94 1011.0
20260505174752 60 183 0.9 7.0 0.06 1.62 0.00 94 1011.1
20260505174255 60 200 0.9 5.2 0.07 1.62 0.00 94 1011.0
20260505173749 60 277 0.0 4.3 0.07 1.62 0.00 94 1011.0
20260505173250 60 169 0.9 2.6 0.05 1.60 0.00 94 1010.9
20260505172749 60 355 0.0 2.6 0.03 1.58 0.00 94 1010.9
20260505172253 60 318 1.7 2.6 0.01 1.56 0.00 94 1011.0
20260505171758 60 153 1.7 3.5 0.06 1.56 0.00 94 1010.8
20260505171250 60 78 0.9 1.7 0.11 1.55 0.00 94 1010.8
20260505170749 60 62 1.7 4.3 0.15 1.55 0.00 93 1010.7
20260505170252 61 328 2.6 4.3 0.17 1.55 0.00 93 1010.8
20260505165750 61 132 0.0 3.5 0.17 1.55 0.00 93 1010.7
20260505165249 61 128 0.9 3.5 0.17 1.55 0.00 93 1010.6
20260505164758 61 145 0.9 4.3 0.17 1.55 0.00 93 1010.7
20260505164249 61 141 1.7 2.6 0.16 1.55 0.00 93 1010.7
20260505163750 61 89 1.7 2.6 0.16 1.55 0.00 93 1010.8